Location: Camaret
(48.2753°N, 4.5961°W)
Time: 04:30:59
(UTC+00:00)

BREEZE-M R/B - Pass Details

Date: 29 October 2020
Orbit: 309 x 4521 km, 49.7° (Epoch: 01 December)

Event Time Altitude Azimuth Distance (km) Brightness Sun altitude
Rises 17:44:10 0° 275° (W) 2,273 7.7 -7.3°
Reaches altitude 10° 17:45:45 10° 277° (W) 1,580 6.5 -7.6°
Maximum altitude 17:49:04 73° 3° (N) 662 3.2 -8.1°
Enters shadow 17:55:24 10° 89° (E) 2,981 5.9 -9.1°
